status,avgMeasuredTime,avgSpeed,extID,medianMeasuredTime,TIMESTAMP,vehicleCount,_id,REPORT_ID
OK,76,50,675,76,2014-08-01T07:50:00,7,20746227,201481
OK,82,47,675,82,2014-08-01T07:55:00,6,20746399,201481
OK,131,29,675,131,2014-08-01T08:00:00,4,20746730,201481
OK,131,29,675,131,2014-08-01T08:05:00,2,20747179,201481
OK,77,50,675,77,2014-08-01T08:10:00,3,20747552,201481
OK,83,46,675,83,2014-08-01T08:15:00,5,20748001,201481
OK,121,31,675,121,2014-08-01T08:20:00,4,20748450,201481
OK,78,49,675,78,2014-08-01T08:25:00,1,20748899,201481
OK,78,49,675,78,2014-08-01T08:30:00,3,20749348,201481
OK,94,41,675,94,2014-08-01T08:35:00,4,20749797,201481
OK,106,36,675,106,2014-08-01T08:40:00,7,20750246,201481
OK,93,41,675,93,2014-08-01T08:45:00,7,20750695,201481
OK,89,43,675,89,2014-08-01T08:50:00,5,20751144,201481
OK,80,48,675,80,2014-08-01T08:55:00,6,20751593,201481
OK,72,53,675,72,2014-08-01T09:00:00,5,20752042,201481
OK,100,38,675,100,2014-08-01T09:05:00,4,20752491,201481
OK,92,42,675,92,2014-08-01T09:10:00,5,20752940,201481
OK,92,42,675,92,2014-08-01T09:15:00,7,20753389,201481
OK,105,36,675,105,2014-08-01T09:20:00,6,20753838,201481
OK,118,32,675,118,2014-08-01T09:25:00,6,20754287,201481
OK,148,26,675,148,2014-08-01T09:30:00,4,20754736,201481
OK,149,25,675,149,2014-08-01T09:35:00,3,20755185,201481
OK,92,42,675,92,2014-08-01T09:40:00,4,20755634,201481
OK,92,42,675,92,2014-08-01T09:45:00,4,20756083,201481
OK,94,41,675,94,2014-08-01T09:50:00,3,20756532,201481
OK,100,38,675,100,2014-08-01T09:55:00,8,20756981,201481
OK,102,37,675,102,2014-08-01T10:00:00,10,20757430,201481
OK,103,37,675,103,2014-08-01T10:05:00,9,20757879,201481
OK,102,37,675,102,2014-08-01T10:10:00,9,20758328,201481
OK,101,38,675,101,2014-08-01T10:15:00,9,20758777,201481
OK,102,37,675,102,2014-08-01T10:20:00,15,20759226,201481
OK,119,32,675,119,2014-08-01T10:25:00,10,20759675,201481
OK,88,43,675,88,2014-08-01T10:30:00,3,20760124,201481
OK,119,32,675,119,2014-08-01T10:35:00,7,20760573,201481
OK,151,25,675,151,2014-08-01T10:40:00,8,20761022,201481
OK,112,34,675,112,2014-08-01T10:45:00,9,20761471,201481
OK,87,44,675,87,2014-08-01T10:50:00,8,20761920,201481
OK,104,37,675,104,2014-08-01T10:55:00,5,20762369,201481
OK,99,39,675,99,2014-08-01T11:00:00,10,20762818,201481
OK,100,38,675,100,2014-08-01T11:05:00,11,20763267,201481
OK,87,44,675,87,2014-08-01T11:10:00,15,20763716,201481
OK,87,44,675,87,2014-08-01T11:15:00,11,20764165,201481
OK,108,35,675,108,2014-08-01T11:20:00,5,20764613,201481
OK,112,34,675,112,2014-08-01T11:25:00,20,20765062,201481
OK,125,30,675,125,2014-08-01T11:30:00,12,20765511,201481
OK,100,38,675,100,2014-08-01T11:35:00,13,20765960,201481
OK,104,37,675,104,2014-08-01T11:40:00,16,20766409,201481
OK,124,31,675,124,2014-08-01T11:45:00,8,20766858,201481
OK,118,32,675,118,2014-08-01T11:50:00,9,20767307,201481
OK,105,36,675,105,2014-08-01T11:55:00,7,20767756,201481
OK,113,34,675,113,2014-08-01T12:00:00,13,20768205,201481
OK,110,35,675,110,2014-08-01T12:05:00,11,20768654,201481
OK,83,46,675,83,2014-08-01T12:10:00,7,20769103,201481
OK,82,47,675,82,2014-08-01T12:15:00,15,20769552,201481
OK,79,48,675,79,2014-08-01T12:20:00,14,20770001,201481
OK,78,49,675,78,2014-08-01T12:25:00,6,20770450,201481
OK,84,46,675,84,2014-08-01T12:30:00,8,20770899,201481
OK,87,44,675,87,2014-08-01T12:35:00,16,20771348,201481
OK,79,48,675,79,2014-08-01T12:40:00,17,20771797,201481
OK,89,43,675,89,2014-08-01T12:45:00,13,20772246,201481
OK,89,43,675,89,2014-08-01T12:50:00,11,20772695,201481
OK,83,46,675,83,2014-08-01T12:55:00,13,20773144,201481
OK,89,43,675,89,2014-08-01T13:00:00,14,20773593,201481
OK,99,39,675,99,2014-08-01T13:05:00,11,20774042,201481
OK,84,46,675,84,2014-08-01T13:10:00,5,20774491,201481
OK,88,43,675,88,2014-08-01T13:15:00,4,20774940,201481
OK,92,42,675,92,2014-08-01T13:20:00,8,20775389,201481
OK,109,35,675,109,2014-08-01T13:25:00,11,20775838,201481
OK,95,40,675,95,2014-08-01T13:30:00,7,20776287,201481
OK,76,50,675,76,2014-08-01T13:35:00,6,20776736,201481
OK,97,39,675,97,2014-08-01T13:40:00,13,20777185,201481
OK,94,41,675,94,2014-08-01T13:45:00,10,20777634,201481
OK,89,43,675,89,2014-08-01T13:50:00,12,20778083,201481
OK,81,47,675,81,2014-08-01T13:55:00,13,20778532,201481
OK,99,39,675,99,2014-08-01T14:00:00,9,20778981,201481
OK,103,37,675,103,2014-08-01T14:05:00,11,20779430,201481
OK,86,44,675,86,2014-08-01T14:10:00,8,20779879,201481
OK,98,39,675,98,2014-08-01T14:15:00,9,20780328,201481
OK,92,42,675,92,2014-08-01T14:20:00,15,20780777,201481
OK,94,41,675,94,2014-08-01T14:25:00,12,20781226,201481
OK,94,41,675,94,2014-08-01T14:30:00,8,20781675,201481
OK,82,47,675,82,2014-08-01T14:35:00,7,20782124,201481
OK,79,48,675,79,2014-08-01T14:40:00,10,20782573,201481
OK,80,48,675,80,2014-08-01T14:45:00,13,20783022,201481
OK,91,42,675,91,2014-08-01T14:50:00,13,20783471,201481
OK,89,43,675,89,2014-08-01T14:55:00,11,20783920,201481
OK,82,47,675,82,2014-08-01T15:00:00,14,20784369,201481
OK,81,47,675,81,2014-08-01T15:05:00,13,20784818,201481
OK,101,38,675,101,2014-08-01T15:10:00,12,20785267,201481
OK,124,31,675,124,2014-08-01T15:15:00,9,20785716,201481
OK,115,33,675,115,2014-08-01T15:20:00,8,20786165,201481
OK,113,34,675,113,2014-08-01T15:25:00,10,20786614,201481
OK,121,31,675,121,2014-08-01T15:30:00,7,20787063,201481
OK,103,37,675,103,2014-08-01T15:35:00,8,20787512,201481
OK,104,37,675,104,2014-08-01T15:40:00,9,20787961,201481
OK,108,35,675,108,2014-08-01T15:45:00,9,20788410,201481
OK,108,35,675,108,2014-08-01T15:50:00,9,20788859,201481
OK,106,36,675,106,2014-08-01T15:55:00,9,20789308,201481
OK,113,34,675,113,2014-08-01T16:00:00,9,20789757,201481
OK,105,36,675,105,2014-08-01T16:05:00,8,20790206,201481
OK,98,39,675,98,2014-08-01T16:10:00,7,20790655,201481
OK,93,41,675,93,2014-08-01T16:15:00,7,20791104,201481
OK,92,42,675,92,2014-08-01T16:20:00,7,20791553,201481
OK,99,39,675,99,2014-08-01T16:25:00,10,20792002,201481
OK,97,39,675,97,2014-08-01T16:30:00,3,20792451,201481
OK,100,38,675,100,2014-08-01T16:35:00,6,20792900,201481
OK,100,38,675,100,2014-08-01T16:40:00,7,20793349,201481
OK,98,39,675,98,2014-08-01T16:45:00,5,20793798,201481
OK,113,34,675,113,2014-08-01T16:50:00,1,20794247,201481
OK,82,47,675,82,2014-08-01T16:55:00,5,20794696,201481
OK,81,47,675,81,2014-08-01T17:00:00,8,20795145,201481
OK,80,48,675,80,2014-08-01T17:05:00,6,20795594,201481
OK,83,46,675,83,2014-08-01T17:10:00,2,20796043,201481
OK,101,38,675,101,2014-08-01T17:15:00,4,20796492,201481
OK,99,39,675,99,2014-08-01T17:20:00,7,20796941,201481
OK,83,46,675,83,2014-08-01T17:25:00,7,20797390,201481
OK,91,42,675,91,2014-08-01T17:30:00,5,20797839,201481
OK,88,43,675,88,2014-08-01T17:35:00,6,20798288,201481
OK,88,43,675,88,2014-08-01T17:40:00,4,20798737,201481
OK,77,50,675,77,2014-08-01T17:45:00,3,20799186,201481
OK,98,39,675,98,2014-08-01T17:50:00,3,20799635,201481
OK,79,48,675,79,2014-08-01T17:55:00,1,20800084,201481
OK,76,50,675,76,2014-08-01T18:00:00,2,20800533,201481
OK,80,48,675,80,2014-08-01T18:05:00,1,20800982,201481
OK,81,47,675,81,2014-08-01T18:10:00,1,20801431,201481
OK,80,48,675,80,2014-08-01T18:15:00,2,20801880,201481
OK,86,44,675,86,2014-08-01T18:20:00,3,20802329,201481
OK,86,44,675,86,2014-08-01T18:25:00,3,20802778,201481
OK,95,40,675,95,2014-08-01T18:30:00,4,20803227,201481
OK,87,44,675,87,2014-08-01T18:35:00,6,20803676,201481
OK,86,44,675,86,2014-08-01T18:40:00,3,20804125,201481
OK,93,41,675,93,2014-08-01T18:45:00,2,20804574,201481
OK,92,42,675,92,2014-08-01T18:50:00,2,20805023,201481
OK,100,38,675,100,2014-08-01T18:55:00,1,20805472,201481
OK,78,49,675,78,2014-08-01T19:00:00,1,20805921,201481
OK,91,42,675,91,2014-08-01T19:05:00,8,20806370,201481
OK,89,43,675,89,2014-08-01T19:10:00,7,20806819,201481
OK,63,61,675,63,2014-08-01T19:15:00,1,20807268,201481
OK,127,30,675,127,2014-08-01T19:20:00,1,20807717,201481
OK,94,41,675,94,2014-08-01T19:25:00,4,20808166,201481
OK,85,45,675,85,2014-08-01T19:30:00,3,20808615,201481
OK,69,56,675,69,2014-08-01T19:35:00,2,20809064,201481
OK,84,46,675,84,2014-08-01T19:40:00,4,20809513,201481
OK,85,45,675,85,2014-08-01T19:45:00,2,20809962,201481
OK,75,51,675,75,2014-08-01T19:50:00,1,20810411,201481
OK,79,48,675,79,2014-08-01T19:55:00,6,20810860,201481
OK,76,50,675,76,2014-08-01T20:00:00,5,20811306,201481
OK,62,62,675,62,2014-08-01T20:05:00,3,20811480,201481
OK,79,48,675,79,2014-08-01T20:10:00,7,20811682,201481
OK,88,43,675,88,2014-08-01T20:15:00,9,20811888,201481
OK,104,37,675,104,2014-08-01T20:20:00,7,20812097,201481
OK,104,37,675,104,2014-08-01T20:25:00,2,20812316,201481
OK,83,46,675,83,2014-08-01T20:30:00,6,20812530,201481
OK,96,40,675,96,2014-08-01T20:35:00,9,20812740,201481
OK,97,39,675,97,2014-08-01T20:40:00,7,20812941,201481
OK,120,32,675,120,2014-08-01T20:45:00,5,20813148,201481
OK,117,33,675,117,2014-08-01T20:50:00,4,20813359,201481
OK,89,43,675,89,2014-08-01T20:55:00,5,20813589,201481
OK,70,55,675,70,2014-08-01T21:00:00,5,20813827,201481
OK,104,37,675,104,2014-08-01T21:05:00,1,20814004,201481
OK,75,51,675,75,2014-08-01T21:10:00,2,20814243,201481
OK,88,43,675,88,2014-08-01T21:15:00,3,20814440,201481
OK,88,43,675,88,2014-08-01T21:20:00,3,20814646,201481
OK,88,43,675,88,2014-08-01T21:25:00,0,20814876,201481
OK,88,43,675,88,2014-08-01T21:30:00,0,20815151,201481
OK,95,40,675,95,2014-08-01T21:35:00,1,20815385,201481
OK,82,47,675,82,2014-08-01T21:40:00,2,20815608,201481
OK,69,56,675,69,2014-08-01T21:45:00,0,20815845,201481
OK,69,56,675,69,2014-08-01T21:50:00,0,20816086,201481
OK,68,56,675,68,2014-08-01T21:55:00,1,20816321,201481
OK,68,56,675,68,2014-08-01T22:00:00,0,20816589,201481
OK,68,56,675,68,2014-08-01T22:05:00,0,20817038,201481
OK,87,44,675,87,2014-08-01T22:10:00,1,20817360,201481
OK,96,40,675,96,2014-08-01T22:15:00,4,20817789,201481
OK,128,30,675,128,2014-08-01T22:20:00,3,20818079,201481
OK,85,45,675,85,2014-08-01T22:25:00,1,20818395,201481
OK,85,45,675,85,2014-08-01T22:30:00,0,20818729,201481
OK,85,45,675,85,2014-08-01T22:35:00,0,20819033,201481
OK,85,45,675,85,2014-08-01T22:40:00,0,20819213,201481
OK,85,45,675,85,2014-08-01T22:45:00,0,20819501,201481
OK,85,45,675,85,2014-08-01T22:50:00,0,20819736,201481
OK,63,61,675,63,2014-08-01T22:55:00,1,20819989,201481
OK,63,61,675,63,2014-08-01T23:00:00,1,20820165,201481
OK,59,65,675,59,2014-08-01T23:05:00,1,20820418,201481
OK,59,65,675,59,2014-08-01T23:10:00,1,20820648,201481
OK,59,65,675,59,2014-08-01T23:15:00,0,20820836,201481
OK,75,51,675,75,2014-08-01T23:20:00,1,20821088,201481
OK,75,51,675,75,2014-08-01T23:25:00,0,20821265,201481
OK,75,51,675,75,2014-08-01T23:30:00,0,20821490,201481
OK,75,51,675,75,2014-08-01T23:35:00,0,20821735,201481
OK,75,51,675,75,2014-08-01T23:40:00,0,20821914,201481
OK,75,51,675,75,2014-08-01T23:45:00,0,20822137,201481
OK,75,51,675,75,2014-08-01T23:50:00,0,20822404,201481
OK,75,51,675,75,2014-08-01T23:55:00,0,20822730,201481
OK,75,51,675,75,2014-08-02T00:00:00,0,20823028,201481
OK,75,51,675,75,2014-08-02T00:05:00,0,20823477,201481
OK,75,51,675,75,2014-08-02T00:10:00,0,20823926,201481
OK,75,51,675,75,2014-08-02T00:15:00,0,20824375,201481
OK,69,56,675,69,2014-08-02T00:20:00,1,20824824,201481
OK,69,56,675,69,2014-08-02T00:25:00,1,20825273,201481
OK,70,55,675,70,2014-08-02T00:30:00,1,20825722,201481
OK,67,57,675,67,2014-08-02T00:35:00,0,20826171,201481
OK,84,46,675,84,2014-08-02T00:40:00,1,20826620,201481
OK,84,46,675,84,2014-08-02T00:45:00,0,20827069,201481
OK,84,46,675,84,2014-08-02T00:50:00,0,20827518,201481
OK,84,46,675,84,2014-08-02T00:55:00,0,20827967,201481
OK,84,46,675,84,2014-08-02T01:00:00,0,20828416,201481
OK,84,46,675,84,2014-08-02T01:05:00,0,20828865,201481
OK,84,46,675,84,2014-08-02T01:10:00,0,20829314,201481
OK,84,46,675,84,2014-08-02T01:15:00,0,20829763,201481
OK,84,46,675,84,2014-08-02T01:20:00,0,20830212,201481
OK,84,46,675,84,2014-08-02T01:25:00,0,20830661,201481
OK,84,46,675,84,2014-08-02T01:30:00,0,20831110,201481
OK,84,46,675,84,2014-08-02T01:35:00,0,20831559,201481
OK,84,46,675,84,2014-08-02T01:40:00,0,20832008,201481
OK,84,46,675,84,2014-08-02T01:45:00,0,20832457,201481
OK,84,46,675,84,2014-08-02T01:50:00,0,20832906,201481
OK,84,46,675,84,2014-08-02T01:55:00,0,20833355,201481
OK,84,46,675,84,2014-08-02T02:00:00,0,20833804,201481
OK,84,46,675,84,2014-08-02T02:05:00,0,20834253,201481
OK,72,53,675,72,2014-08-02T02:10:00,2,20834702,201481
OK,66,58,675,66,2014-08-02T02:15:00,0,20835151,201481
OK,58,66,675,58,2014-08-02T02:20:00,1,20835600,201481
OK,58,66,675,58,2014-08-02T02:25:00,0,20836049,201481
OK,71,54,675,71,2014-08-02T02:30:00,1,20836498,201481
OK,71,54,675,71,2014-08-02T02:35:00,0,20836947,201481
OK,71,54,675,71,2014-08-02T02:40:00,0,20837396,201481
OK,71,54,675,71,2014-08-02T02:45:00,0,20837845,201481
OK,71,54,675,71,2014-08-02T02:50:00,0,20838294,201481
OK,71,54,675,71,2014-08-02T02:55:00,0,20838743,201481
OK,71,54,675,71,2014-08-02T03:00:00,0,20839192,201481
OK,71,54,675,71,2014-08-02T03:05:00,0,20839641,201481
OK,65,59,675,65,2014-08-02T03:10:00,1,20840090,201481
OK,65,59,675,65,2014-08-02T03:15:00,1,20840539,201481
OK,65,59,675,65,2014-08-02T03:20:00,0,20840988,201481
OK,65,59,675,65,2014-08-02T03:25:00,0,20841437,201481
OK,65,59,675,65,2014-08-02T03:30:00,0,20841886,201481
OK,65,59,675,65,2014-08-02T03:35:00,0,20842335,201481
OK,65,59,675,65,2014-08-02T03:40:00,0,20842784,201481
OK,65,59,675,65,2014-08-02T03:45:00,0,20843233,201481
OK,63,61,675,63,2014-08-02T03:50:00,1,20843682,201481
OK,58,66,675,58,2014-08-02T03:55:00,1,20844131,201481
OK,58,66,675,58,2014-08-02T04:00:00,0,20844580,201481
OK,58,66,675,58,2014-08-02T04:05:00,0,20844711,201481
OK,60,64,675,60,2014-08-02T04:10:00,1,20845041,201481
OK,60,64,675,60,2014-08-02T04:15:00,1,20845221,201481
OK,60,64,675,60,2014-08-02T04:20:00,0,20845577,201481
OK,84,46,675,84,2014-08-02T04:25:00,1,20845945,201481
OK,84,46,675,84,2014-08-02T04:30:00,1,20846133,201481
OK,84,46,675,84,2014-08-02T04:35:00,0,20846500,201481
OK,84,46,675,84,2014-08-02T04:40:00,0,20846883,201481
OK,84,46,675,84,2014-08-02T04:45:00,0,20847142,201481
OK,84,46,675,84,2014-08-02T04:50:00,0,20847508,201481
OK,67,57,675,67,2014-08-02T04:55:00,0,20847865,201481
OK,62,62,675,62,2014-08-02T05:00:00,1,20848225,201481
OK,73,52,675,73,2014-08-02T05:05:00,2,20848390,201481
OK,109,35,675,109,2014-08-02T05:10:00,2,20848743,201481
OK,75,51,675,75,2014-08-02T05:15:00,4,20848935,201481
OK,75,51,675,75,2014-08-02T05:20:00,4,20849279,201481
OK,74,52,675,74,2014-08-02T05:30:00,5,20849804,201481
OK,87,44,675,87,2014-08-02T05:35:00,3,20850076,201481
OK,87,44,675,87,2014-08-02T05:40:00,1,20850369,201481
OK,87,44,675,87,2014-08-02T05:45:00,0,20850670,201481
OK,67,57,675,67,2014-08-02T05:50:00,1,20851028,201481
OK,67,57,675,67,2014-08-02T05:55:00,1,20851282,201481
OK,73,52,675,73,2014-08-02T06:00:00,1,20851585,201481
OK,54,71,675,54,2014-08-02T06:05:00,1,20852034,201481
OK,74,52,675,74,2014-08-02T06:10:00,1,20852483,201481
OK,74,52,675,74,2014-08-02T06:15:00,3,20852932,201481
OK,64,60,675,64,2014-08-02T06:20:00,1,20853381,201481
OK,64,60,675,64,2014-08-02T06:25:00,0,20853830,201481
OK,71,54,675,71,2014-08-02T06:30:00,4,20854279,201481
OK,72,53,675,72,2014-08-02T06:35:00,3,20854728,201481
OK,76,50,675,76,2014-08-02T06:40:00,4,20855177,201481
OK,77,50,675,77,2014-08-02T06:45:00,7,20855626,201481
OK,78,49,675,78,2014-08-02T06:50:00,3,20856075,201481
OK,78,49,675,78,2014-08-02T06:55:00,5,20856524,201481
OK,88,43,675,88,2014-08-02T07:00:00,2,20856973,201481
OK,86,44,675,86,2014-08-02T07:05:00,3,20857422,201481
OK,102,37,675,102,2014-08-02T07:10:00,4,20857871,201481
OK,93,41,675,93,2014-08-02T07:15:00,4,20858320,201481
OK,85,45,675,85,2014-08-02T07:20:00,2,20858769,201481
OK,99,39,675,99,2014-08-02T07:25:00,2,20859218,201481
OK,80,48,675,80,2014-08-02T07:30:00,4,20859667,201481
OK,82,47,675,82,2014-08-02T07:35:00,5,20860116,201481
OK,82,47,675,82,2014-08-02T07:40:00,5,20860565,201481
OK,90,42,675,90,2014-08-02T07:45:00,4,20861014,201481
OK,90,42,675,90,2014-08-02T07:50:00,3,20861463,201481
OK,94,41,675,94,2014-08-02T07:55:00,6,20861912,201481
OK,90,42,675,90,2014-08-02T08:00:00,6,20862361,201481
OK,98,39,675,98,2014-08-02T08:05:00,6,20862810,201481
OK,100,38,675,100,2014-08-02T08:10:00,5,20863259,201481
OK,82,47,675,82,2014-08-02T08:15:00,4,20863708,201481
OK,85,45,675,85,2014-08-02T08:20:00,6,20864157,201481
OK,91,42,675,91,2014-08-02T08:25:00,4,20864606,201481
OK,81,47,675,81,2014-08-02T08:30:00,5,20865055,201481
OK,82,47,675,82,2014-08-02T08:35:00,4,20865504,201481
OK,90,42,675,90,2014-08-02T08:40:00,3,20865953,201481
OK,95,40,675,95,2014-08-02T08:45:00,3,20866402,201481
OK,91,42,675,91,2014-08-02T08:50:00,5,20866851,201481
OK,90,42,675,90,2014-08-02T08:55:00,5,20867300,201481
OK,87,44,675,87,2014-08-02T09:00:00,6,20867749,201481
OK,97,39,675,97,2014-08-02T09:05:00,6,20868198,201481
OK,96,40,675,96,2014-08-02T09:10:00,6,20868647,201481
OK,95,40,675,95,2014-08-02T09:15:00,9,20869096,201481
OK,87,44,675,87,2014-08-02T09:20:00,12,20869545,201481
OK,77,50,675,77,2014-08-02T09:25:00,9,20869994,201481
OK,87,44,675,87,2014-08-02T09:30:00,8,20870443,201481
OK,85,45,675,85,2014-08-02T09:35:00,7,20870892,201481
OK,84,46,675,84,2014-08-02T09:40:00,7,20871341,201481
OK,92,42,675,92,2014-08-02T09:45:00,9,20871790,201481
OK,91,42,675,91,2014-08-02T09:50:00,9,20872239,201481
OK,89,43,675,89,2014-08-02T09:55:00,11,20872688,201481
OK,94,41,675,94,2014-08-02T10:00:00,6,20873137,201481
OK,85,45,675,85,2014-08-02T10:05:00,3,20873586,201481
OK,91,42,675,91,2014-08-02T10:10:00,6,20874035,201481
OK,95,40,675,95,2014-08-02T10:15:00,14,20874484,201481
OK,91,42,675,91,2014-08-02T10:20:00,14,20874933,201481
OK,91,42,675,91,2014-08-02T10:25:00,8,20875382,201481
OK,103,37,675,103,2014-08-02T10:30:00,6,20875831,201481
OK,95,40,675,95,2014-08-02T10:35:00,8,20876280,201481
OK,108,35,675,108,2014-08-02T10:40:00,13,20876729,201481
OK,99,39,675,99,2014-08-02T10:45:00,10,20877178,201481
OK,99,39,675,99,2014-08-02T10:50:00,7,20877627,201481
OK,105,36,675,105,2014-08-02T10:55:00,10,20878076,201481
OK,93,41,675,93,2014-08-02T11:00:00,11,20878525,201481
OK,98,39,675,98,2014-08-02T11:05:00,15,20878974,201481
OK,98,39,675,98,2014-08-02T11:10:00,15,20879423,201481
OK,83,46,675,83,2014-08-02T11:15:00,16,20879872,201481
OK,85,45,675,85,2014-08-02T11:20:00,11,20880321,201481
OK,82,47,675,82,2014-08-02T11:25:00,6,20880770,201481
OK,84,46,675,84,2014-08-02T11:30:00,7,20881219,201481
OK,84,46,675,84,2014-08-02T11:35:00,11,20881668,201481
OK,97,39,675,97,2014-08-02T11:40:00,15,20882117,201481
OK,96,40,675,96,2014-08-02T11:45:00,8,20882566,201481
OK,84,46,675,84,2014-08-02T11:50:00,3,20883015,201481
OK,84,46,675,84,2014-08-02T11:55:00,1,20883464,201481
OK,108,35,675,108,2014-08-02T12:00:00,3,20883913,201481
OK,102,37,675,102,2014-08-02T12:05:00,6,20884362,201481
OK,112,34,675,112,2014-08-02T12:10:00,7,20884811,201481
OK,109,35,675,109,2014-08-02T12:15:00,9,20885260,201481
OK,96,40,675,96,2014-08-02T12:20:00,8,20885709,201481
OK,97,39,675,97,2014-08-02T12:25:00,4,20886158,201481
OK,93,41,675,93,2014-08-02T12:30:00,11,20886607,201481
OK,85,45,675,85,2014-08-02T12:35:00,15,20887056,201481
OK,92,42,675,92,2014-08-02T12:40:00,9,20887505,201481
OK,95,40,675,95,2014-08-02T12:45:00,7,20887954,201481
OK,112,34,675,112,2014-08-02T12:50:00,6,20888403,201481
OK,104,37,675,104,2014-08-02T12:55:00,8,20888852,201481
OK,93,41,675,93,2014-08-02T13:00:00,3,20889301,201481
OK,83,46,675,83,2014-08-02T13:05:00,3,20889750,201481
OK,80,48,675,80,2014-08-02T13:10:00,5,20890199,201481
OK,88,43,675,88,2014-08-02T13:15:00,6,20890648,201481
OK,101,38,675,101,2014-08-02T13:20:00,6,20891097,201481
OK,87,44,675,87,2014-08-02T13:25:00,4,20891546,201481
OK,87,44,675,87,2014-08-02T13:30:00,9,20891995,201481
OK,86,44,675,86,2014-08-02T13:35:00,13,20892444,201481
OK,71,54,675,71,2014-08-02T13:40:00,9,20892893,201481
OK,96,40,675,96,2014-08-02T13:45:00,8,20893342,201481
OK,101,38,675,101,2014-08-02T13:50:00,13,20893791,201481
OK,92,42,675,92,2014-08-02T13:55:00,8,20894240,201481
OK,90,42,675,90,2014-08-02T14:00:00,11,20894689,201481
OK,90,42,675,90,2014-08-02T14:05:00,8,20895138,201481
OK,113,34,675,113,2014-08-02T14:10:00,4,20895587,201481
OK,114,33,675,114,2014-08-02T14:15:00,5,20896036,201481
OK,92,42,675,92,2014-08-02T14:20:00,4,20896485,201481
OK,80,48,675,80,2014-08-02T14:25:00,6,20896934,201481
OK,90,42,675,90,2014-08-02T14:30:00,9,20897383,201481
OK,100,38,675,100,2014-08-02T14:35:00,8,20897832,201481
OK,102,37,675,102,2014-08-02T14:40:00,5,20898281,201481
OK,90,42,675,90,2014-08-02T14:45:00,2,20898730,201481
OK,86,44,675,86,2014-08-02T14:50:00,4,20899179,201481
OK,73,52,675,73,2014-08-02T14:55:00,9,20899628,201481
OK,93,41,675,93,2014-08-02T15:00:00,8,20900077,201481
OK,95,40,675,95,2014-08-02T15:05:00,3,20900526,201481
OK,108,35,675,108,2014-08-02T15:10:00,2,20900975,201481
OK,104,37,675,104,2014-08-02T15:15:00,3,20901424,201481
OK,73,52,675,73,2014-08-02T15:20:00,5,20901873,201481
OK,73,52,675,73,2014-08-02T15:25:00,7,20902322,201481
OK,84,46,675,84,2014-08-02T15:30:00,5,20902771,201481
OK,82,47,675,82,2014-08-02T15:35:00,2,20903220,201481
OK,85,45,675,85,2014-08-02T15:40:00,3,20903669,201481
OK,91,42,675,91,2014-08-02T15:45:00,5,20904118,201481
OK,95,40,675,95,2014-08-02T15:50:00,6,20904567,201481
OK,92,42,675,92,2014-08-02T15:55:00,6,20905016,201481
OK,86,44,675,86,2014-08-02T16:00:00,8,20905465,201481
OK,81,47,675,81,2014-08-02T16:05:00,7,20905914,201481
OK,71,54,675,71,2014-08-02T16:10:00,8,20906363,201481
OK,83,46,675,83,2014-08-02T16:15:00,7,20906812,201481
OK,83,46,675,83,2014-08-02T16:20:00,5,20907261,201481
OK,76,50,675,76,2014-08-02T16:25:00,5,20907710,201481
OK,90,42,675,90,2014-08-02T16:30:00,3,20908159,201481
OK,66,58,675,66,2014-08-02T16:35:00,3,20908608,201481
OK,77,50,675,77,2014-08-02T16:40:00,9,20909057,201481
OK,81,47,675,81,2014-08-02T16:45:00,6,20909506,201481
OK,101,38,675,101,2014-08-02T16:50:00,8,20909955,201481
OK,105,36,675,105,2014-08-02T16:55:00,7,20910404,201481
OK,97,39,675,97,2014-08-02T17:00:00,5,20910853,201481
OK,99,39,675,99,2014-08-02T17:05:00,4,20911302,201481
OK,108,35,675,108,2014-08-02T17:10:00,2,20911751,201481
OK,92,42,675,92,2014-08-02T17:15:00,0,20912200,201481
OK,96,40,675,96,2014-08-02T17:20:00,1,20912649,201481
OK,96,40,675,96,2014-08-02T17:25:00,1,20913098,201481
OK,88,43,675,88,2014-08-02T17:30:00,4,20913547,201481
OK,89,43,675,89,2014-08-02T17:35:00,4,20913996,201481
OK,97,39,675,97,2014-08-02T17:40:00,2,20914445,201481
OK,79,48,675,79,2014-08-02T17:45:00,1,20914894,201481
OK,111,34,675,111,2014-08-02T17:50:00,1,20915343,201481
OK,111,34,675,111,2014-08-02T17:55:00,1,20915792,201481
OK,111,34,675,111,2014-08-02T18:00:00,0,20916241,201481
OK,66,58,675,66,2014-08-02T18:05:00,1,20916690,201481
OK,65,59,675,65,2014-08-02T18:10:00,2,20917139,201481
OK,82,47,675,82,2014-08-02T18:15:00,2,20917588,201481
OK,92,42,675,92,2014-08-02T18:20:00,2,20918037,201481
OK,74,52,675,74,2014-08-02T18:25:00,2,20918486,201481
OK,64,60,675,64,2014-08-02T18:30:00,1,20918935,201481
OK,188,20,675,188,2014-08-02T18:35:00,2,20919384,201481
OK,188,20,675,188,2014-08-02T18:40:00,0,20919833,201481
OK,70,55,675,70,2014-08-02T18:45:00,2,20920282,201481
OK,83,46,675,83,2014-08-02T18:50:00,2,20920731,201481
OK,100,38,675,100,2014-08-02T18:55:00,1,20921180,201481
OK,93,41,675,93,2014-08-02T19:00:00,2,20921629,201481
OK,77,50,675,77,2014-08-02T19:05:00,3,20922078,201481
OK,58,66,675,58,2014-08-02T19:10:00,0,20922527,201481
OK,75,51,675,75,2014-08-02T19:15:00,2,20922976,201481
OK,74,52,675,74,2014-08-02T19:20:00,3,20923425,201481
OK,97,39,675,97,2014-08-02T19:25:00,2,20923874,201481
OK,81,47,675,81,2014-08-02T19:30:00,3,20924323,201481
OK,85,45,675,85,2014-08-02T19:35:00,5,20924772,201481
OK,87,44,675,87,2014-08-02T19:40:00,2,20925221,201481